Location: Newark
(14.1000°N, 87.2167°W)
Time: 04:33:25
(UTC+00:00)

Hubble Space Telescope - Pass Details

Date: 24 July 2019
Orbit: 536 x 540 km, 28.5° (Epoch: 20 August)

Event Time Altitude Azimuth Distance (km) Brightness Sun altitude
Exits shadow 10:46:40 13° 271° (W) 1,622 2.7 -10.8°
Maximum altitude 10:50:04 38° 338° (NNW) 828 1.7 -10.0°
Drops below altitude 10° 10:53:54 10° 47° (NE) 1,776 4.7 -9.2°
Sets 10:56:17 0° 55° (NE) 2,666 6.3 -8.6°
